1529499601.06,53878,21.56,74818.5,16.49,6.57,5.99,0,*47
1529499602.27,53879,21.56,74822.8,16.47,6.79,6.21,0,*44
1529499603.51,53880,21.56,74820.8,16.49,7.15,6.47,0,*47
1529499604.74,53881,21.56,74822.3,16.49,7.23,6.69,0,*4F
1529499605.92,53882,21.56,74822.8,16.49,7.45,7.01,0,*43
1529499607.13,53883,21.56,74822.0,16.49,7.55,7.23,0,*43
1529499608.32,53884,21.56,74820.0,16.49,8.27,8.05,0,*45
1529499609.54,53885,21.56,74818.5,16.53,8.41,8.27,0,*4F
1529499610.8,53886,21.56,74818.0,16.51,8.37,8.29,0,*41
1529499612.04,53887,21.56,74816.0,16.51,8.15,8.13,0,*49
1529499613.26,53888,21.56,74818.0,16.53,8.41,8.27,0,*42
1529499614.46,53889,21.56,74820.3,16.53,8.61,8.55,0,*44
1529499615.7,53890,21.56,74818.0,16.55,8.61,8.55,0,*4A
1529499616.91,53891,21.56,74816.8,16.55,8.87,8.83,0,*48
1529499618.17,53892,21.56,74818.5,16.55,8.71,8.75,0,*4B
1529499619.4,53893,21.56,74818.8,16.59,8.75,8.79,0,*4E
1529499620.62,53894,21.56,74816.8,16.59,9.43,9.43,0,*45
1529499621.83,53895,21.56,74818.8,16.59,9.67,9.67,0,*44
1529499623.06,53896,21.56,74816.3,16.63,9.67,9.57,0,*4D
1529499624.32,53897,21.56,74816.3,16.63,9.85,9.57,0,*40
1529499625.53,53898,21.56,74816.3,16.63,10.03,9.71,0,*7D
1529499626.71,53899,21.56,74818.0,16.65,10.05,9.63,0,*7F
1529499627.93,53900,21.56,74818.8,16.65,10.09,9.49,0,*7A
1529499629.15,53901,21.56,74818.8,16.65,10.37,9.75,0,*79
1529499630.33,53902,21.56,74818.5,16.65,9.91,9.25,0,*4B
1529499631.56,53903,21.56,74818.5,16.67,9.21,8.47,0,*46
1529499632.8,53904,21.56,74818.3,16.67,9.07,8.29,0,*4D
1529499634.0,53905,21.56,74816.3,16.65,9.53,8.83,0,*4F
1529499635.24,53906,21.56,74816.3,16.69,9.81,9.01,0,*44
1529499636.43,53907,21.56,74816.8,16.69,10.05,9.29,0,*7B
1529499637.66,53908,21.56,74814.5,16.71,10.05,9.15,0,*72
1529499638.87,53909,21.56,74812.8,16.73,9.91,8.75,0,*43
1529499640.08,53910,21.56,74816.5,16.73,9.43,8.37,0,*42
1529499641.31,53911,21.56,74812.0,16.75,9.03,7.83,0,*41
1529499642.54,53912,21.56,74814.5,16.75,7.83,6.79,0,*40
1529499643.74,53913,21.56,74814.3,16.73,7.97,7.15,0,*49
1529499644.97,53914,21.56,74816.8,16.73,8.51,7.87,0,*40
1529499646.21,53915,21.56,74816.0,16.81,8.55,8.05,0,*4D
1529499647.44,53916,21.56,74816.5,16.77,8.01,7.91,0,*44
1529499648.7,53917,21.56,74814.0,16.77,7.65,7.73,0,*44
1529499649.9,53918,21.56,74814.5,16.77,7.41,7.51,0,*4D
1529499651.14,53919,21.56,74812.5,16.77,6.87,7.09,0,*4A
1529499652.37,53920,21.56,74810.0,16.75,6.11,6.35,0,*43
1529499653.6,53921,21.56,74806.8,16.75,6.21,6.57,0,*45
1529499654.83,53922,21.56,74808.8,16.73,7.19,7.47,0,*4A
1529499656.07,53923,21.56,74810.8,16.73,7.73,7.73,0,*40
1529499657.31,53924,21.56,74808.5,16.71,7.91,7.79,0,*43
1529499658.51,53925,21.56,74804.0,16.69,8.37,8.01,0,*48
1529499659.75,53926,21.56,74808.5,16.71,8.37,8.01,0,*42
1529499660.98,53927,21.56,74808.5,16.69,7.95,7.27,0,*46
1529499662.24,53928,21.56,74808.3,16.71,8.51,7.77,0,*42
1529499663.44,53929,21.56,74812.5,16.69,8.61,7.83,0,*42
1529499664.65,53930,21.56,74808.5,16.69,7.79,7.11,0,*47
1529499665.85,53931,21.56,74814.3,16.67,7.41,6.75,0,*40
1529499667.06,53932,21.56,74814.5,16.65,7.29,6.57,0,*4F
1529499668.29,53933,21.56,74814.5,16.63,8.13,7.45,0,*4C
1529499669.47,53934,21.56,74812.0,16.61,9.25,8.69,0,*4C
1529499670.72,53935,21.56,74814.3,16.63,9.11,8.71,0,*41
1529499671.93,53936,21.56,74812.5,16.65,8.55,8.09,0,*4A
1529499673.17,53937,21.56,74812.5,16.65,7.87,7.69,0,*42
1529499674.38,53938,21.56,74812.8,16.65,8.13,8.05,0,*4A
1529499675.59,53939,21.56,74816.5,16.65,8.19,8.37,0,*40
1529499676.8,53940,21.56,74814.5,16.65,8.37,8.45,0,*47
1529499678.01,53941,21.56,74814.8,16.65,7.87,8.09,0,*4A
1529499679.19,53942,21.56,74812.8,16.65,8.09,8.45,0,*48
1529499680.4,53943,21.56,74818.5,16.63,8.01,8.15,0,*42
1529499681.63,53944,21.56,74814.8,16.61,8.47,8.51,0,*45
1529499682.81,53945,21.56,74812.0,16.61,8.05,8.01,0,*47
1529499684.06,53946,21.56,74814.3,16.63,8.51,8.51,0,*42
1529499685.27,53947,21.56,74814.5,16.61,8.13,8.23,0,*42
1529499686.47,53948,21.56,74816.3,16.59,7.97,7.97,0,*45
1529499687.71,53949,21.56,74816.0,16.55,7.95,7.97,0,*4A
1529499688.97,53950,21.56,74816.0,16.55,9.19,9.19,0,*40
1529499690.24,53951,21.56,74816.3,16.55,9.19,9.19,0,*41
1529499691.47,53952,21.56,74812.5,16.55,9.77,9.75,0,*40
1529499692.68,53953,21.56,74820.0,16.55,9.99,9.95,0,*4F
1529499693.89,53954,21.56,74816.0,16.59,9.71,9.63,0,*4B
1529499695.13,53955,21.56,74816.8,16.59,9.77,9.67,0,*48
1529499696.37,53956,21.56,74818.0,16.55,9.85,9.75,0,*49
1529499697.57,53957,21.56,74818.3,16.61,10.47,10.33,0,*43
1529499698.8,53958,21.56,74816.5,16.63,10.23,9.95,0,*78
1529499700.03,53959,21.56,74818.8,16.63,9.71,9.35,0,*4C
1529499701.23,53960,21.56,74818.3,16.61,9.67,9.15,0,*41
1529499702.44,53961,21.56,74818.3,16.63,9.71,9.03,0,*42
1529499703.63,53962,21.56,74816.8,16.61,9.67,8.83,0,*4D
1529499704.83,53963,21.56,74818.8,16.63,9.95,9.03,0,*4A
1529499706.08,53964,21.56,74816.0,16.63,10.23,9.15,0,*7F
1529499707.32,53965,21.56,74816.8,16.63,9.71,8.59,0,*48
1529499708.5,53966,21.56,74818.3,16.65,9.43,8.09,0,*49
1529499709.76,53967,21.56,74816.5,16.67,9.57,8.13,0,*44
1529499711.0,53968,21.56,74816.3,16.65,10.19,8.71,0,*7F
1529499712.23,53969,21.56,74818.5,16.67,10.55,8.89,0,*73
1529499713.47,53970,21.56,74820.5,16.69,10.27,8.51,0,*75
1529499714.7,53971,21.56,74818.5,16.71,10.17,8.33,0,*7A
1529499715.96,53972,21.56,74816.8,16.71,9.81,7.91,0,*49
1529499717.16,53973,21.56,74816.5,16.73,9.95,7.87,0,*48
1529499718.37,53974,21.56,74816.8,16.75,9.03,6.79,0,*46
1529499719.58,53975,21.56,74820.5,16.73,9.07,6.73,0,*4F
1529499720.81,53976,21.56,74816.0,16.77,9.33,6.87,0,*44
1529499722.05,53977,21.56,74818.3,16.81,9.39,6.97,0,*47
1529499723.23,53978,21.56,74822.0,16.83,10.03,7.41,0,*71
1529499724.44,53979,21.56,74818.8,16.85,10.05,7.51,0,*71
1529499725.67,53980,21.56,74818.3,16.85,9.75,7.19,0,*44
1529499726.93,53981,21.56,74812.0,16.89,9.53,7.19,0,*4D
1529499728.13,53982,21.56,74816.5,16.89,9.63,7.33,0,*45
1529499729.37,53983,21.56,74816.3,16.93,10.05,7.61,0,*70
1529499730.62,53984,21.56,74818.3,16.97,10.17,7.73,0,*73
1529499731.83,53985,21.56,74818.0,16.97,9.33,6.75,0,*4B
1529499733.05,53986,21.56,74816.5,17.01,9.71,7.15,0,*47
1529499734.29,53987,21.56,74816.3,17.05,9.07,6.47,0,*45
1529499735.49,53988,21.56,74818.0,17.07,7.37,4.63,0,*41
1529499736.68,53989,21.56,74818.5,17.07,6.97,4.15,0,*4A
1529499737.88,53990,21.56,74816.8,17.05,7.37,4.53,0,*49
1529499739.07,53991,21.56,74816.5,17.09,8.27,5.49,0,*40
1529499740.27,53992,21.56,74816.5,17.09,8.93,6.29,0,*49
1529499741.53,53993,21.56,74818.8,17.11,9.11,6.87,0,*4E
1529499742.73,53994,21.56,74814.8,17.15,9.29,7.05,0,*4D
1529499743.98,53995,21.56,74816.8,17.19,8.89,6.73,0,*4B
1529499745.22,53996,21.56,74816.3,17.19,8.13,5.95,0,*40
1529499746.42,53997,21.56,74816.8,17.19,8.45,6.33,0,*4D
1529499747.63,53998,21.56,74812.5,17.27,8.87,6.79,0,*4F
1529499748.88,53999,21.56,74816.0,17.23,8.51,6.43,0,*48
1529499750.12,54000,21.56,74814.5,17.29,8.47,6.17,0,*4A
1529499751.32,54001,21.56,74812.3,17.29,8.33,5.95,0,*41
1529499752.56,54002,21.56,74812.3,17.31,8.19,5.93,0,*45
1529499753.79,54003,21.56,74812.0,17.33,8.13,5.89,0,*47
1529499755.03,54004,21.56,74816.5,17.35,7.77,5.45,0,*4B
1529499756.21,54005,21.56,74814.0,17.33,5.99,3.89,0,*48
1529499757.44,54006,21.56,74812.5,17.33,5.85,3.79,0,*49
1529499758.63,54007,21.56,74810.8,17.33,5.49,3.53,0,*40
1529499759.87,54008,21.56,74808.0,17.31,5.93,4.07,0,*4C
1529499761.11,54009,21.56,74808.0,17.31,6.39,4.41,0,*4C
1529499762.32,54010,21.56,74804.3,17.31,7.09,4.89,0,*42
1529499763.55,54011,21.56,74808.8,17.33,8.33,5.51,0,*43
1529499764.76,54012,21.56,74804.3,17.33,8.05,4.93,0,*4A
1529499765.99,54013,21.56,74814.5,17.35,6.93,3.37,0,*45
1529499767.23,54014,21.56,74814.0,17.35,7.73,3.93,0,*43
1529499768.41,54015,21.56,74812.0,17.37,7.51,3.25,0,*4D
1529499769.63,54016,21.56,74808.3,17.41,8.79,3.97,0,*43
1529499770.85,54017,21.56,74808.0,17.45,10.23,5.11,0,*78
1529499772.1,54018,21.56,74812.3,17.51,9.89,5.05,0,*4F
1529499773.36,54019,21.56,74808.0,17.55,8.41,3.11,0,*4C
1529499774.59,54020,21.56,74800.3,17.57,6.73,1.43,0,*4E
1529499775.83,54021,21.56,74806.3,17.59,7.09,2.09,0,*40
1529499777.06,54022,21.56,74810.5,17.63,8.37,4.23,0,*46
1529499778.24,54023,21.56,74812.8,17.69,8.45,4.41,0,*4C
1529499779.45,54024,21.56,74814.0,17.75,9.29,5.27,0,*4C
1529499780.66,54025,21.56,74814.0,17.79,7.55,3.45,0,*46
1529499781.87,54026,21.63,74814.3,17.81,7.45,3.81,0,*4B
1529499783.09,54027,21.56,74810.5,17.85,6.97,3.25,0,*4E
1529499784.3,54028,21.56,74812.5,17.87,7.29,3.33,0,*40
1529499785.51,54029,21.56,74810.0,17.91,7.87,3.81,0,*4B
1529499786.72,54030,21.56,74808.8,17.95,8.33,4.57,0,*4B
1529499787.93,54031,21.56,74814.8,17.99,8.13,4.57,0,*44
1529499789.13,54032,21.56,74812.3,18.03,8.71,5.15,0,*48
1529499790.37,54033,21.56,74808.8,18.07,8.41,4.19,0,*43
1529499791.63,54034,21.56,74810.0,18.11,7.11,3.03,0,*45
1529499792.85,54035,21.56,74812.0,18.11,5.41,1.59,0,*4E
1529499794.06,54036,21.56,74814.8,18.13,6.43,1.83,0,*49
1529499795.3,54037,21.56,74812.8,18.17,6.47,1.67,0,*42
1529499796.54,54038,21.56,74810.8,18.13,6.39,1.29,0,*4A
1529499797.78,54039,21.56,74814.0,18.19,4.63,-0.49,0,*56
1529499799.02,54040,21.56,74812.5,18.19,4.63,-0.11,0,*55
1529499800.22,54041,21.56,74814.5,18.21,4.53,0.47,0,*72
1529499801.43,54042,21.56,74814.0,18.19,4.27,0.97,0,*74
1529499802.69,54043,21.56,74812.0,18.19,4.75,1.17,0,*4B
1529499803.95,54044,21.56,74808.0,18.19,4.67,1.33,0,*49
1529499805.17,54045,21.63,74812.0,18.19,4.57,1.43,0,*4C
1529499806.41,54046,21.56,74810.0,18.19,4.05,0.97,0,*70
1529499807.59,54047,21.56,74812.3,18.17,2.99,-0.07,0,*68
1529499808.82,54048,21.56,74808.3,18.17,3.45,0.17,0,*7B
1529499810.05,54049,21.56,74814.3,18.13,4.93,0.29,0,*7F
1529499811.26,54050,21.56,74812.5,18.13,2.73,-3.07,0,*6D
1529499812.48,54051,21.63,74812.0,18.09,1.55,-4.17,0,*66
1529499813.7,54052,21.56,74808.0,18.05,1.05,-4.73,0,*6E
1529499814.93,54053,21.56,74810.0,18.01,0.95,-4.29,0,*5C
1529499816.17,54054,21.56,74808.5,18.01,1.37,-2.87,0,*60
1529499817.39,54055,21.63,74812.3,17.99,1.13,-1.63,0,*60
1529499818.61,54056,21.56,74808.3,17.99,1.67,0.33,0,*79
1529499819.85,54057,21.56,74810.8,17.97,1.89,0.33,0,*76
1529499821.05,54058,21.56,74810.0,17.95,2.13,-0.29,0,*5D
1529499822.28,54059,21.56,74808.8,17.91,2.43,0.13,0,*79
1529499823.53,54060,21.56,74810.8,17.89,2.09,0.59,0,*7A
1529499824.74,54061,21.56,74810.3,17.87,0.47,-0.49,0,*61
1529499825.99,54062,21.56,74810.5,17.85,1.55,0.67,0,*73
1529499827.21,54063,21.63,74808.8,17.83,2.01,0.87,0,*78
1529499828.42,54064,21.56,74810.3,17.83,2.91,1.13,0,*4A
1529499829.59,54065,21.56,74810.0,17.79,2.99,0.01,0,*44
1529499830.8,54066,21.56,74814.3,17.75,2.73,-1.33,0,*62
1529499832.01,54067,21.56,74812.3,17.75,2.95,-0.97,0,*54
1529499833.25,54068,21.56,74814.0,17.73,1.37,-2.83,0,*61
1529499834.49,54069,21.56,74808.5,17.69,-1.09,-4.93,0,*4C
1529499835.72,54070,21.56,74808.0,17.69,-1.71,-5.31,0,*42
1529499836.91,54071,21.56,74812.3,17.65,-2.91,-6.31,0,*41
1529499838.16,54072,21.56,74810.3,17.61,-2.55,-5.69,0,*40
1529499839.38,54073,21.56,74808.5,17.59,-3.39,-6.77,0,*4D
1529499840.63,54074,21.63,74810.5,17.55,-2.79,-6.19,0,*4B
1529499841.88,54075,21.63,74812.3,17.53,-1.83,-4.85,0,*4D
1529499843.1,54076,21.63,74814.8,17.53,-1.99,-4.65,0,*4B
1529499844.33,54077,21.56,74812.5,17.53,-1.99,-4.13,0,*4B
1529499845.58,54078,21.63,74812.8,17.49,-1.01,-2.63,0,*4F
1529499846.83,54079,21.56,74814.0,17.51,0.13,-1.35,0,*58
1529499848.07,54080,21.56,74812.3,17.53,-0.23,-1.47,0,*77
1529499849.32,54081,21.63,74812.5,17.55,-2.03,-2.95,0,*4C
1529499850.6,54082,21.56,74812.8,17.55,-2.07,-2.51,0,*43
1529499851.84,54083,21.56,74814.0,17.55,-2.43,-2.03,0,*45
1529499853.05,54084,21.63,74812.5,17.53,-3.75,-2.87,0,*4C
1529499854.26,54085,21.56,74808.3,17.53,-2.75,-1.55,0,*40
1529499855.51,54086,21.63,74814.5,17.49,-1.99,-0.23,0,*79
1529499856.71,54087,21.63,74814.3,17.49,-0.33,1.55,0,*54
1529499857.95,54088,21.63,74814.5,17.49,2.89,4.75,0,*42
1529499859.15,54089,21.63,74814.0,17.51,4.45,6.11,0,*4C
1529499860.35,54090,21.56,74808.3,17.51,4.11,5.41,0,*43
1529499861.57,54091,21.56,74810.3,17.51,5.07,6.39,0,*48
1529499862.78,54092,21.63,74814.5,17.53,3.37,4.19,0,*4C
1529499864.03,54093,21.56,74812.8,17.55,2.01,3.23,0,*41
1529499865.24,54094,21.56,74814.3,17.53,1.51,3.29,0,*4C
1529499866.48,54095,21.63,74810.8,17.53,-0.97,1.37,0,*56
1529499867.73,54096,21.63,74810.3,17.51,-1.35,1.25,0,*6D
1529499868.9,54097,21.56,74808.8,17.49,0.01,2.91,0,*42
1529499870.11,54098,21.63,74814.3,17.49,-0.73,1.97,0,*50
1529499871.34,54099,21.63,74810.5,17.45,-2.07,0.29,0,*58
1529499872.58,54100,21.63,74808.3,17.39,-2.47,-0.03,0,*43
1529499873.79,54101,21.63,74812.5,17.35,-0.69,1.79,0,*51
1529499875.03,54102,21.63,74814.3,17.35,-1.25,2.05,0,*63
1529499876.3,54103,21.56,74812.5,17.31,-2.47,1.33,0,*67
1529499877.54,54104,21.56,74808.5,17.31,-3.11,1.33,0,*62
1529499878.79,54105,21.56,74810.5,17.27,-2.67,1.93,0,*6E
1529499880.02,54106,21.56,74810.5,17.27,-1.67,3.19,0,*6E
1529499881.26,54107,21.63,74812.0,17.23,-1.43,3.63,0,*60
1529499882.47,54108,21.56,74808.0,17.21,-0.85,4.23,0,*55
1529499883.67,54109,21.63,74812.8,17.19,-0.15,4.89,0,*56
1529499884.83,54110,21.63,74812.5,17.17,0.43,5.49,0,*73
1529499886.04,54111,21.63,74814.3,17.17,1.17,6.25,0,*4B
1529499887.27,54112,21.56,74810.0,17.17,1.55,6.39,0,*43
1529499888.46,54113,21.63,74812.8,17.17,2.27,6.69,0,*41
1529499889.68,54114,21.63,74814.5,17.17,2.77,6.57,0,*4E
1529499890.95,54115,21.63,74812.5,17.15,3.15,6.35,0,*4C
1529499892.18,54116,21.63,74810.8,17.17,3.15,5.93,0,*42
1529499893.41,54117,21.63,74814.5,17.13,3.41,5.85,0,*41
1529499894.63,54118,21.63,74812.3,17.13,2.91,4.93,0,*44
1529499895.84,54119,21.63,74814.3,17.11,3.25,5.29,0,*49
1529499897.07,54120,21.56,74812.8,17.11,3.19,5.41,0,*42
1529499898.33,54121,21.63,74814.5,17.11,2.21,4.67,0,*4C
1529499899.59,54122,21.63,74812.3,17.11,1.63,4.31,0,*49
1529499900.8,54123,21.63,74812.8,17.09,1.83,4.79,0,*43
1529499902.07,54124,21.63,74814.3,17.11,1.21,4.31,0,*49
1529499903.29,54125,21.63,74814.0,17.09,0.63,4.01,0,*75
1529499904.48,54126,21.56,74810.5,17.09,-0.81,2.99,0,*50
1529499905.68,54127,21.63,74808.5,17.09,0.59,4.53,0,*79
1529499906.89,54128,21.63,74812.3,17.07,1.29,5.37,0,*4D
1529499908.1,54129,21.63,74812.8,17.07,1.67,5.67,0,*43
1529499909.3,54130,21.63,74814.5,17.09,1.83,5.73,0,*4A
1529499910.51,54131,21.63,74814.8,17.09,1.63,5.63,0,*44
1529499911.69,54132,21.56,74808.0,17.09,2.27,6.11,0,*42
1529499912.92,54133,21.63,74814.8,17.09,2.69,6.39,0,*43
1529499914.15,54134,21.63,74812.0,17.09,3.53,6.91,0,*4E
1529499915.38,54135,21.63,74812.8,17.11,3.85,7.23,0,*45
1529499916.62,54136,21.63,74810.3,17.11,3.89,7.11,0,*4B
1529499917.85,54137,21.63,74810.5,17.11,4.41,7.47,0,*4A
1529499919.08,54138,21.63,74812.8,17.11,4.79,7.59,0,*41
1529499920.28,54139,21.63,74810.3,17.15,5.37,8.15,0,*48
1529499921.52,54140,21.63,74810.0,17.15,4.75,7.29,0,*41
1529499922.73,54141,21.63,74812.5,17.15,4.89,7.09,0,*41
1529499923.96,54142,21.63,74808.8,17.15,3.85,6.17,0,*47
1529499925.18,54143,21.63,74814.5,17.13,3.67,5.99,0,*49
1529499926.38,54144,21.63,74812.8,17.13,3.63,5.85,0,*47
1529499927.63,54145,21.63,74810.3,17.13,3.07,5.51,0,*4D
1529499928.81,54146,21.63,74812.0,17.13,2.95,5.41,0,*45
1529499930.04,54147,21.63,74808.5,17.11,2.69,5.41,0,*45
1529499931.27,54148,21.63,74810.3,17.11,2.77,5.59,0,*4C
1529499932.5,54149,21.63,74812.0,17.11,3.53,6.29,0,*4E
1529499933.74,54150,21.63,74810.3,17.11,3.89,6.43,0,*4D
1529499934.99,54151,21.63,74814.3,17.11,3.97,6.65,0,*47
1529499936.22,54152,21.63,74814.3,17.11,4.19,6.87,0,*49
1529499937.41,54153,21.63,74810.5,17.13,4.37,7.01,0,*49
1529499938.58,54154,21.63,74812.8,17.13,4.23,7.01,0,*4B
1529499939.81,54155,21.63,74816.3,17.15,4.53,7.47,0,*49
1529499941.01,54156,21.63,74812.0,17.17,4.75,7.55,0,*4F
1529499942.24,54157,21.63,74812.0,17.19,4.31,7.01,0,*41
1529499943.5,54158,21.63,74812.0,17.19,4.31,7.11,0,*4F
1529499944.72,54159,21.63,74812.0,17.19,3.97,7.01,0,*44
1529499945.93,54160,21.63,74814.5,17.19,4.11,7.29,0,*4D
1529499947.14,54161,21.63,74818.0,17.21,4.11,7.27,0,*49
1529499948.35,54162,21.63,74814.5,17.23,4.15,7.45,0,*48
1529499949.61,54163,21.63,74812.3,17.23,4.67,7.73,0,*49
1529499950.81,54164,21.56,74810.8,17.23,4.11,7.01,0,*4A
1529499952.05,54165,21.63,74812.3,17.23,3.41,6.21,0,*4A
1529499953.25,54166,21.63,74812.0,17.23,4.23,6.79,0,*47
1529499954.48,54167,21.63,74814.5,17.23,4.71,7.37,0,*4A
1529499955.68,54168,21.63,74812.3,17.23,4.57,7.33,0,*45
1529499956.91,54169,21.63,74812.8,17.23,4.05,7.05,0,*46
1529499958.14,54170,21.63,74812.8,17.23,4.15,7.11,0,*4A
1529499959.37,54171,21.63,74812.8,17.23,4.05,7.01,0,*4B
1529499960.6,54172,21.63,74814.3,17.23,2.85,5.99,0,*45
1529499961.86,54173,21.63,74812.8,17.23,2.59,5.89,0,*44
1529499963.09,54174,21.63,74812.5,17.23,2.35,5.77,0,*48
1529499964.29,54175,21.63,74812.3,17.21,2.91,6.53,0,*40
1529499965.5,54176,21.63,74810.3,17.21,3.41,6.93,0,*43
1529499966.76,54177,21.63,74812.5,17.23,3.75,7.23,0,*4D
1529499967.99,54178,21.63,74812.8,17.21,3.75,7.27,0,*44
1529499969.22,54179,21.63,74810.8,17.21,3.53,7.11,0,*44
1529499970.48,54180,21.63,74814.5,17.23,3.33,6.91,0,*4F
1529499971.66,54181,21.63,74814.5,17.21,3.93,7.45,0,*4E
1529499972.84,54182,21.63,74812.0,17.21,4.23,7.59,0,*4C
1529499974.08,54183,21.63,74814.3,17.23,4.33,7.73,0,*46
1529499975.31,54184,21.63,74808.5,17.27,4.41,7.73,0,*40
1529499976.52,54185,21.63,74808.3,17.23,4.11,7.55,0,*44
1529499977.75,54186,21.63,74812.3,17.23,3.67,6.93,0,*4A
1529499978.95,54187,21.63,74814.8,17.23,3.85,7.33,0,*4C
1529499980.18,54188,21.63,74810.0,17.27,4.19,7.65,0,*46
1529499981.39,54189,21.63,74810.5,17.27,3.93,7.37,0,*45
1529499982.65,54190,21.63,74808.3,17.27,3.45,6.91,0,*4B
1529499983.9,54191,21.63,74808.0,17.27,2.89,6.47,0,*40
1529499985.16,54192,21.63,74810.8,17.27,3.11,6.57,0,*42
1529499986.36,54193,21.63,74810.0,17.23,3.29,6.93,0,*44
1529499987.56,54194,21.63,74812.0,17.23,3.85,7.45,0,*4F
1529499988.78,54195,21.63,74806.0,17.29,4.19,7.77,0,*47
1529499990.01,54196,21.63,74808.3,17.27,3.93,7.65,0,*4C
1529499991.27,54197,21.63,74814.3,17.27,4.05,7.77,0,*46
1529499992.48,54198,21.63,74808.3,17.27,4.27,7.97,0,*47
1529499993.71,54199,21.63,74810.0,17.29,3.97,7.87,0,*45
1529499994.92,54200,21.63,74808.5,17.29,3.93,7.69,0,*42
1529499996.11,54201,21.63,74808.5,17.29,3.93,7.55,0,*4C
1529499997.31,54202,21.63,74808.5,17.29,4.19,7.65,0,*49
1529499998.5,54203,21.63,74810.3,17.29,4.11,7.51,0,*47
1529499999.7,54204,21.63,74806.8,17.29,4.41,7.87,0,*4E
1529500000.94,54205,21.63,74810.3,17.31,4.63,8.01,0,*47
1529500002.19,54206,21.63,74808.8,17.31,4.63,7.91,0,*42
1529500003.42,54207,21.63,74808.3,17.31,4.45,7.65,0,*4C
1529500004.6,54208,21.63,74808.5,17.29,5.15,7.97,0,*43
1529500005.78,54209,21.63,74808.8,17.29,5.71,8.01,0,*40
1529500006.98,54210,21.63,74810.0,17.27,5.41,7.59,0,*47
1529500008.22,54211,21.63,74812.0,17.27,5.67,7.73,0,*4A
1529500009.44,54212,21.63,74810.3,17.27,5.49,7.47,0,*42
1529500010.71,54213,21.63,74810.8,17.27,5.89,7.77,0,*4C
1529500011.97,54214,21.63,74810.8,17.27,5.93,7.95,0,*4C
1529500013.17,54215,21.63,74808.0,17.23,5.29,7.45,0,*45
1529500014.4,54216,21.63,74808.3,17.23,5.29,7.61,0,*40
1529500015.59,54217,21.63,74808.3,17.21,5.95,8.27,0,*49
1529500016.81,54218,21.63,74808.5,17.23,5.77,8.15,0,*49
1529500018.02,54219,21.63,74808.8,17.21,5.85,8.05,0,*46
1529500019.22,54220,21.63,74812.0,17.21,5.29,7.69,0,*4F
1529500020.39,54221,21.63,74810.8,17.17,5.29,7.51,0,*40
1529500021.59,54222,21.63,74808.5,17.17,4.85,7.27,0,*45
1529500022.79,54223,21.63,74808.0,17.17,4.79,7.37,0,*46
1529500024.0,54224,21.63,74810.0,17.17,5.07,7.61,0,*4A
1529500025.2,54225,21.63,74806.0,17.17,4.75,7.37,0,*4C
1529500026.41,54226,21.63,74808.8,17.15,4.85,7.55,0,*46
1529500027.64,54227,21.63,74810.0,17.11,5.05,7.59,0,*46
1529500028.85,54228,21.63,74808.5,17.09,5.41,7.91,0,*44
1529500030.05,54229,21.63,74812.5,17.13,5.85,8.05,0,*44
1529500031.26,54230,21.63,74810.5,17.09,5.85,7.79,0,*43
1529500032.47,54231,21.63,74810.8,17.09,5.85,7.59,0,*40
1529500033.68,54232,21.63,74810.0,17.09,6.61,8.23,0,*48
1529500034.87,54233,21.63,74814.0,17.09,6.33,7.79,0,*4E
1529500036.07,54234,21.63,74808.5,17.07,5.81,7.37,0,*47
1529500037.3,54235,21.63,74810.3,17.05,5.85,7.41,0,*41
1529500038.51,54236,21.63,74810.3,17.09,6.39,7.97,0,*41
1529500039.74,54237,21.63,74810.3,17.05,6.73,8.19,0,*4B
1529500040.97,54238,21.63,74806.8,17.01,7.05,8.29,0,*43
1529500042.18,54239,21.63,74810.8,16.99,7.11,8.27,0,*49
1529500043.38,54240,21.63,74810.8,17.01,7.59,8.79,0,*40
1529500044.61,54241,21.63,74810.5,17.01,7.15,8.19,0,*4F
1529500045.86,54242,21.63,74810.0,17.01,6.91,7.65,0,*45
1529500047.04,54243,21.63,74810.5,16.99,6.11,7.01,0,*4E
1529500048.25,54244,21.63,74810.5,16.97,5.95,6.97,0,*46
1529500049.49,54245,21.63,74808.3,16.97,6.51,7.51,0,*47
1529500050.73,54246,21.63,74810.3,16.95,6.65,7.61,0,*42
1529500051.94,54247,21.63,74810.0,16.95,6.35,7.09,0,*48
1529500053.17,54248,21.63,74810.8,16.91,5.85,6.69,0,*4C
1529500054.43,54249,21.63,74810.5,16.93,5.93,6.91,0,*4F
1529500055.69,54250,21.63,74808.0,16.89,6.73,7.65,0,*4B
1529500056.9,54251,21.63,74808.3,16.87,6.93,7.83,0,*42
1529500058.12,54252,21.63,74812.5,16.87,6.75,7.73,0,*46
1529500059.33,54253,21.63,74810.5,16.87,6.97,7.65,0,*4C
1529500060.52,54254,21.63,74808.8,16.83,5.63,6.33,0,*45
1529500061.72,54255,21.63,74806.8,16.83,5.29,5.93,0,*43
1529500062.92,54256,21.63,74808.5,16.77,5.67,6.29,0,*43
1529500064.16,54257,21.63,74810.0,16.75,5.67,6.35,0,*4D
1529500065.37,54258,21.63,74810.3,16.75,3.93,4.53,0,*4D
1529500066.55,54259,21.63,74806.3,16.69,4.23,4.81,0,*42
1529500067.79,54260,21.63,74804.5,16.65,3.07,3.67,0,*4A
1529500069.02,54261,21.63,74804.0,16.61,3.15,3.79,0,*43
1529500070.22,54262,21.63,74804.0,16.55,3.59,4.19,0,*4E
1529500071.46,54263,21.63,74804.8,16.51,4.81,5.55,0,*40
1529500072.68,54264,21.63,74804.0,16.47,4.81,5.59,0,*4C
1529500073.88,54265,21.63,74808.5,16.47,5.71,6.21,0,*4F
1529500075.14,54266,21.63,74808.8,16.47,5.77,6.39,0,*43
1529500076.35,54267,21.63,74810.0,16.45,6.25,6.87,0,*41
1529500077.59,54268,21.63,74810.0,16.43,5.85,6.43,0,*49
1529500078.85,54269,21.63,74808.3,16.41,6.13,6.65,0,*42
1529500080.09,54270,21.63,74808.8,16.39,6.53,6.91,0,*4A
1529500081.3,54271,21.63,74804.8,16.39,6.51,7.09,0,*49
1529500082.53,54272,21.63,74810.5,16.39,5.81,6.53,0,*4A
1529500083.75,54273,21.63,74806.5,16.39,6.87,7.41,0,*4C
1529500084.98,54274,21.63,74806.0,16.39,6.87,7.19,0,*46
1529500086.21,54275,21.63,74810.5,16.37,5.41,5.81,0,*43
1529500087.48,54276,21.63,74810.0,16.33,4.63,5.27,0,*49
1529500088.69,54277,21.63,74808.3,16.29,6.29,6.79,0,*47
1529500089.91,54278,21.63,74808.0,16.29,5.59,5.99,0,*41
1529500091.09,54279,21.63,74808.8,16.23,5.59,6.07,0,*4E
1529500092.33,54280,21.63,74806.5,16.23,6.13,6.51,0,*46
1529500093.56,54281,21.63,74806.8,16.21,6.79,7.15,0,*48
1529500094.8,54282,21.63,74808.0,16.21,7.51,7.91,0,*4C
1529500096.04,54283,21.63,74812.5,16.19,6.91,7.11,0,*43
1529500097.23,54284,21.63,74810.3,16.19,6.97,7.09,0,*4B
1529500098.41,54285,21.63,74812.5,16.19,6.79,6.79,0,*4C
1529500099.66,54286,21.63,74812.0,16.19,6.39,6.47,0,*46
1529500100.9,54287,21.63,74806.8,16.17,5.95,6.17,0,*49
1529500102.08,54288,21.63,74808.5,16.15,6.07,6.25,0,*4D
1529500103.27,54289,21.63,74806.0,16.15,5.37,5.67,0,*49
1529500104.51,54290,21.63,74804.5,16.13,5.71,5.93,0,*4E
1529500105.74,54291,21.63,74806.5,16.11,6.57,6.91,0,*4B
1529500106.96,54292,21.63,74804.8,16.11,6.39,6.73,0,*4C
1529500108.13,54293,21.63,74806.5,16.07,6.75,7.09,0,*4E
1529500109.35,54294,21.63,74806.0,16.05,6.07,6.43,0,*41
1529500110.57,54295,21.63,74806.3,16.05,5.27,5.71,0,*43
1529500111.77,54296,21.63,74802.8,16.03,5.29,5.55,0,*4E
1529500112.94,54297,21.63,74804.8,16.03,5.23,5.59,0,*49
1529500114.14,54298,21.63,74804.8,16.01,5.41,5.71,0,*4A
1529500115.36,54299,21.63,74806.0,15.97,6.53,6.75,0,*40
1529500116.54,54300,21.63,74810.0,15.99,6.75,7.01,0,*49
1529500117.74,54301,21.63,74808.3,15.97,6.83,6.97,0,*41
1529500118.95,54302,21.63,74806.3,15.95,6.29,6.51,0,*4A
1529500120.17,54303,21.63,74806.5,15.95,5.85,6.17,0,*4C
1529500121.41,54304,21.63,74808.0,15.93,6.39,6.61,0,*48